DW0268 Weather Reports


time (UTC)temp
C
wind
direction
speed
KPH
gust
KPH
rain 1hr
cm
rain 24hr
cm
rain mn
cm
humidity
%
barometer
mb
20260905160055 33 286 8.0 12.9 0.00 0.00 0.00 65 1016.5
20260905154548 33 266 6.4 11.3 0.00 0.00 0.00 68 1016.5
20260905153059 33 262 4.8 9.7 0.00 0.00 0.00 69 1016.5
20260905151537 32 315 1.6 8.0 0.00 0.00 0.00 72 1016.7
20260905150034 31 290 3.2 9.7 0.00 0.00 0.00 72 1016.7
20260905144530 31 311 3.2 9.7 0.00 0.00 0.00 73 1016.7
20260905143029 31 340 1.6 6.4 0.00 0.00 0.00 75 1016.7
20260905141526 30 330 4.8 8.0 0.00 0.00 0.00 76 1016.8
20260905140021 30 338 1.6 6.4 0.00 0.00 0.00 79 1016.5
20260905134516 28 344 3.2 6.4 0.00 0.00 0.00 81 1016.6
20260905133013 27 355 1.6 4.8 0.00 0.00 0.00 85 1016.3
20260905131511 26 355 1.6 4.8 0.00 0.00 0.00 88 1016.2
20260905130009 25 348 0.0 4.8 0.00 0.00 0.00 91 1016.2
20260905124517 25 346 4.8 6.4 0.00 0.00 0.00 92 1016.0
20260905123003 24 151 1.6 3.2 0.00 0.00 0.00 93 1016.2
20260905121502 23 258 0.0 4.8 0.00 0.00 0.00 93 1016.0
20260905120001 23 247 3.2 4.8 0.00 0.00 0.00 93 1015.7
20260905114600 23 246 1.6 3.2 0.00 0.00 0.00 93 1015.7
20260905113059 23 246 1.6 3.2 0.00 0.00 0.00 92 1015.5
20260905111557 23 246 1.6 4.8 0.00 0.00 0.00 92 1015.5
20260905110059 23 213 0.0 3.2 0.00 0.00 0.00 92 1015.5
20260905104557 23 213 0.0 0.0 0.00 0.00 0.00 92 1015.4
20260905103056 24 213 0.0 0.0 0.00 0.00 0.00 91 1015.5
20260905101553 24 213 0.0 0.0 0.00 0.00 0.00 91 1015.5
20260905100113 24 213 0.0 0.0 0.00 0.00 0.00 91 1015.4
20260905094550 24 213 0.0 1.6 0.00 0.00 0.00 90 1015.3
20260905093049 24 205 3.2 4.8 0.00 0.00 0.00 89 1015.4
20260905091545 25 205 0.0 1.6 0.00 0.00 0.00 87 1015.3
20260905090103 25 206 0.0 1.6 0.00 0.00 0.00 86 1015.3
20260905084542 25 205 0.0 1.6 0.00 0.00 0.00 87 1015.1
20260905083047 25 205 0.0 3.2 0.00 0.00 0.00 86 1015.2
20260905081547 25 207 0.0 1.6 0.00 0.00 0.00 86 1015.4
20260905080046 25 207 0.0 0.0 0.00 0.00 0.00 85 1015.3
20260905074538 25 207 0.0 1.6 0.00 0.00 0.00 85 1015.3
20260905073038 26 207 0.0 4.8 0.00 0.00 0.00 83 1015.3
20260905071533 26 207 0.0 1.6 0.00 0.00 0.00 83 1015.4
20260905070032 26 207 0.0 0.0 0.00 0.00 0.00 82 1015.5
20260905064528 27 207 0.0 1.6 0.00 0.00 0.00 83 1015.5
20260905063028 27 207 0.0 3.2 0.00 0.00 0.00 81 1015.6
20260905061526 27 207 0.0 0.0 0.00 0.00 0.00 82 1015.7
20260905060032 27 207 0.0 0.0 0.00 0.00 0.00 81 1015.6
20260905054533 27 207 0.0 1.6 0.00 0.00 0.00 81 1015.7
20260905053021 27 207 0.0 3.2 0.00 0.00 0.00 80 1015.7
20260905051526 28 207 0.0 4.8 0.00 0.00 0.00 79 1015.8
20260905050017 28 207 0.0 1.6 0.00 0.00 0.00 77 1015.7
20260905044514 28 207 0.0 3.2 0.00 0.00 0.00 76 1015.8
20260905043013 28 207 0.0 4.8 0.00 0.00 0.00 76 1015.8
20260905041513 28 207 0.0 1.6 0.00 0.00 0.00 77 1015.8
20260905040013 28 207 0.0 0.0 0.00 0.00 0.00 77 1015.7
20260905034512 28 207 0.0 0.0 0.00 0.00 0.00 77 1015.8
20260905033011 28 207 0.0 0.0 0.00 0.00 0.00 76 1016.0
20260905031511 28 207 0.0 0.0 0.00 0.00 0.00 78 1015.9
20260905030010 28 207 0.0 3.2 0.00 0.00 0.00 80 1016.1
20260905024509 28 207 0.0 3.2 0.00 0.00 0.00 80 1016.1
20260905023009 28 207 0.0 6.4 0.00 0.00 0.00 80 1016.1
20260905021508 30 173 0.0 0.0 0.00 0.00 0.00 75 1015.9
20260905020010 30 173 0.0 0.0 0.00 0.00 0.00 68 1015.7
20260905014507 31 173 0.0 1.6 0.00 0.00 0.00 64 1015.8
20260905013010 32 173 0.0 3.2 0.00 0.00 0.00 63 1015.6
20260905011513 32 173 0.0 4.8 0.00 0.00 0.00 61 1015.4
20260905010006 33 173 0.0 0.0 0.00 0.00 0.00 59 1015.4
20260905004505 33 173 0.0 0.0 0.00 0.00 0.00 58 1015.3
20260905003004 35 173 0.0 0.0 0.00 0.00 0.00 57 1015.1
20260905001509 35 173 0.0 0.0 0.00 0.00 0.00 59 1015.0
20260905000003 36 173 0.0 1.6 0.00 0.00 0.00 56 1014.9
20260904234502 36 173 0.0 1.6 0.00 0.00 0.00 56 1014.9
20260904233001 36 173 0.0 3.2 0.00 0.00 0.00 55 1014.9
20260904231600 36 173 0.0 4.8 0.00 0.00 0.00 53 1014.9
20260904230110 36 173 1.6 4.8 0.00 0.00 0.00 57 1015.0
20260904224559 36 188 3.2 6.4 0.00 0.00 0.00 55 1015.0
20260904223104 35 169 4.8 9.7 0.00 0.00 0.00 57 1015.0
20260904221603 35 182 3.2 6.4 0.00 0.00 0.00 62 1014.8
20260904220118 35 179 4.8 8.0 0.00 0.00 0.00 61 1014.9
20260904214555 35 157 4.8 12.9 0.00 0.00 0.00 56 1015.1
20260904213052 36 169 4.8 9.7 0.00 0.00 0.00 55 1015.1
20260904211550 36 225 4.8 11.3 0.00 0.00 0.00 56 1015.5
20260904210050 37 248 3.2 8.0 0.00 0.00 0.00 51 1015.6
20260904204550 37 132 3.2 12.9 0.00 0.00 0.00 53 1015.8
20260904203045 37 184 6.4 14.5 0.00 0.00 0.00 52 1015.9
20260904201551 37 65 1.6 14.5 0.00 0.00 0.00 51 1016.2
20260904200053 37 107 4.8 16.1 0.00 0.00 0.00 51 1016.5
20260904194547 37 175 4.8 12.9 0.00 0.00 0.00 51 1016.6
20260904193038 37 111 4.8 9.7 0.00 0.00 0.00 51 1016.8
20260904191535 36 221 4.8 17.7 0.00 0.00 0.00 53 1017.0
20260904190033 36 209 8.0 14.5 0.00 0.00 0.00 53 1017.2
20260904184600 36 251 4.8 11.3 0.00 0.00 0.00 55 1017.4
20260904183038 36 30 1.6 12.9 0.00 0.00 0.00 56 1017.6
20260904181530 35 277 0.0 11.3 0.00 0.00 0.00 57 1017.7
20260904180027 36 246 9.7 16.1 0.00 0.00 0.00 59 1017.6
20260904174554 36 115 3.2 9.7 0.00 0.00 0.00 58 1017.8
20260904173022 36 249 1.6 8.0 0.00 0.00 0.00 56 1017.8
20260904171521 36 193 4.8 9.7 0.00 0.00 0.00 57 1018.1
20260904170035 35 203 1.6 8.0 0.00 0.00 0.00 60 1018.2
20260904164516 35 261 3.2 9.7 0.00 0.00 0.00 61 1018.2
20260904163011 34 275 3.2 6.4 0.00 0.00 0.00 61 1018.3
20260904161507 34 229 4.8 9.7 0.00 0.00 0.00 63 1018.4